www.pogodaiklimat.ru

Погода и климат >> Архив погоды >> Финляндия >> Хаммарланд


ПОГОДА на Хаммарланде

  • Прогноз погоды на Хаммарланде
  • Монитор погоды на Хаммарланде

АРХИВ ПОГОДЫ на Хаммарланде

Время (UTC), дата Ветер
(напр.,м/с)
 
Видим.   Явления Облачность Т
(С)
Тd
(С)
f
(%)
Тe
(С)
Тes
(С)
Комфортность P
(гПа)
Po
(гПа)
Тmin
(С)
Tmax
(С)
R
(мм)
R24
(мм)
S
(см)
22 11.06 СВ 16-18
{18}
н/о н/о +11.2 +6.7 74 +6 +6 1023.1 1021.3
23 11.06 СВ 16-19
{19}
н/о н/о +11.1 +6.4 73 +6 +6 1023.7 1021.8
00 12.06 СВ 16-20
{20}
н/о н/о +10.7 +5.8 72 +6 +6 1023.8 1021.9
01 12.06 СВ 15 н/о н/о +10.5 +5.3 70 +6 +6 1024.0 1022.2
02 12.06 СВ 14 н/о н/о +10.0 +4.5 69 +5 +5 1024.0 1022.1
03 12.06 СВ 13-16
{17}
н/о н/о +9.5 +5.0 73 +4 +4 1024.8 1023.0
04 12.06 СВ 13 н/о н/о +9.1 +5.2 77 +4 +4 1024.9 1023.0
05 12.06 СВ 13 н/о н/о +8.8 +5.3 79 +3 +3 1024.8 1022.9
06 12.06 СВ 14-16
{16}
н/о н/о +8.6 +5.1 79 +3 +3 1024.7 1022.8 +8.5 +11.6
07 12.06 СВ 11 н/о н/о +8.6 +5.4 80 +3 +3 1025.3 1023.5
08 12.06 СВ 11-12
{12}
н/о н/о +8.6 +5.6 81 +3 +3 1025.7 1023.8
09 12.06 СВ 10-12
{12}
н/о н/о +8.7 +6.0 83 +4 +4 1026.0 1024.2
10 12.06 СВ 11 н/о н/о +8.9 +6.2 83 +4 +4 1025.4 1023.5
11 12.06 СВ 11 н/о н/о +9.1 +6.5 84 +4 +4 1024.9 1023.1
12 12.06 СВ 9-10
{12}
н/о н/о +9.3 +6.9 85 +5 +5 1025.0 1023.1
13 12.06 СВ 9 н/о н/о +9.5 +7.0 84 +5 +5 1024.0 1022.1
14 12.06 СВ 11 н/о н/о +9.9 +7.0 82 +5 +5 1022.8 1020.9
15 12.06 СВ 10-11
{12}
н/о н/о +9.8 +7.4 85 +5 +5 1022.9 1021.0
16 12.06 СВ 11-12
{12}
н/о н/о +10.1 +7.4 83 +5 +5 1022.5 1020.6
17 12.06 СВ 10-11
{12}
н/о н/о +10.2 +7.6 84 +6 +6 1022.3 1020.5
18 12.06 СВ 8-9
{11}
н/о н/о +10.1 +7.8 86 +6 +6 1021.5 1019.6 +8.5 +10.4
19 12.06 СВ 8 н/о н/о +10.3 +8.1 86 +6 +6 1021.4 1019.5
20 12.06 В 7-7
{8}
н/о н/о +11.0 +8.4 84 +8 +8 1021.2 1019.3
21 12.06 СВ 7-7
{7}
н/о н/о +10.1 +8.7 91 +6 +6 1020.9 1019.0
22 12.06 СВ 7 н/о н/о +10.9 +8.6 86 +7 +7 1020.6 1018.8
23 12.06 СВ 6 н/о н/о +11.6 +8.4 81 +9 +9 1020.4 1018.6
00 13.06 В 10-11
{11}
н/о н/о +10.8 +7.5 80 +7 +7 1018.8 1017.0
01 13.06 В 11-13
{13}
н/о н/о +11.1 +7.3 77 +7 +7 1017.8 1015.9
02 13.06 В 8-10
{13}
н/о н/о +10.8 +7.8 82 +7 +7 1017.0 1015.2
03 13.06 В 9-11
{12}
н/о н/о +11.0 +7.9 81 +7 +7 1016.2 1014.4
04 13.06 В 8 н/о н/о +10.7 +8.3 85 +7 +7 1015.1 1013.3
05 13.06 В 7-7
{10}
н/о н/о +11.1 +8.7 85 +8 +8 1015.6 1013.7
06 13.06 В 6-8
{8}
н/о н/о +11.4 +9.3 87 +8 +8 1014.6 1012.8 +10.0 +12.8
07 13.06 В 8-9
{9}
н/о н/о +11.8 +9.9 88 +8 +8 1014.0 1012.2
08 13.06 В 5-6
{10}
н/о н/о +12.2 +10.5 89 +10 +10 1013.9 1012.1
09 13.06 ЮВ 7-8
{8}
н/о н/о +11.7 +10.8 94 +8 +8 1014.5 1012.6
10 13.06 ЮВ 11 н/о н/о +12.4 +11.7 95 +9 +9 1013.1 1011.3
11 13.06 ЮВ 9 н/о н/о +12.2 +11.5 95 +9 +9 1014.2 1012.4
12 13.06 В 12-13
{15}
н/о н/о +12.5 +12.0 97 +9 +9 1012.7 1010.9
13 13.06 В 8 н/о н/о +12.3 +11.8 97 +9 +9 1012.1 1010.3
14 13.06 ЮЗ 8-9
{12}
н/о н/о +13.4 +12.8 96 +11 +11 1013.9 1012.1
15 13.06 Ю 3-4
{5}
н/о н/о +13.3 +12.7 96 +12 +12 1013.8 1012.0
16 13.06 С 6 н/о н/о +10.3 +9.9 97 +7 +7 1014.0 1012.1
17 13.06 С 8-8
{9}
н/о н/о +11.1 +10.8 98 +7 +7 1013.1 1011.3
18 13.06 СВ 8-9
{9}
н/о н/о +10.6 +10.4 99 +7 +7 1013.6 1011.8 +10.3 +13.5
19 13.06 СВ 7 н/о н/о +10.5 +10.3 99 +7 +7 1013.8 1012.0
20 13.06 СВ 8 н/о н/о +10.8 +10.7 99 +7 +7 1013.6 1011.8
21 13.06 СВ 5-6
{8}
н/о н/о +11.1 +10.9 99 +8 +8 1014.3 1012.4
22 13.06 В 5 н/о н/о +12.0 +11.9 99 +9 +9 1014.6 1012.8
23 13.06 СЗ 5-5
{6}
н/о н/о +10.2 +10.0 99 +7 +7 1014.6 1012.7
00 14.06 З 5-6
{6}
н/о н/о +9.6 +9.5 99 +6 +6 1014.4 1012.5
01 14.06 СЗ 7 н/о н/о +10.5 +10.4 99 +7 +7 1014.1 1012.3
02 14.06 З 6 н/о н/о +9.9 +9.8 99 +6 +6 1014.5 1012.7
03 14.06 СЗ 8-8
{11}
н/о н/о +9.8 +9.7 99 +5 +5 1014.1 1012.3
04 14.06 СЗ 5 н/о н/о +9.5 +9.4 99 +6 +6 1014.8 1013.0
05 14.06 З 6-7
{7}
н/о н/о +9.6 +9.4 99 +6 +6 1015.1 1013.2
06 14.06 З 9-10
{10}
н/о н/о +9.9 +9.7 99 +5 +5 1015.1 1013.2 +9.4 +13.5
07 14.06 З 10-12
{12}
н/о н/о +9.7 +9.6 99 +5 +5 1015.4 1013.5
08 14.06 СЗ 9 н/о н/о +9.6 +9.4 99 +5 +5 1016.0 1014.2
09 14.06 СЗ 11-12
{12}
н/о н/о +9.4 +9.3 99 +4 +4 1016.7 1014.9
10 14.06 СЗ 10 н/о н/о +9.5 +9.4 99 +5 +5 1017.4 1015.6
11 14.06 З 10 н/о н/о +9.6 +9.4 99 +5 +5 1017.9 1016.0
12 14.06 СЗ 11-13
{13}
н/о н/о +9.7 +9.5 99 +5 +5 1017.8 1015.9
13 14.06 СЗ 11-12
{12}
н/о н/о +9.4 +9.2 99 +4 +4 1018.2 1016.3
14 14.06 СЗ 8 н/о н/о +9.7 +9.0 95 +5 +5 1018.9 1017.0
15 14.06 СЗ 7-9
{9}
н/о н/о +9.7 +8.8 94 +6 +6 1018.8 1016.9
16 14.06 СЗ 4 н/о н/о +9.6 +8.5 93 +7 +7 1018.3 1016.5
17 14.06 З 3 н/о н/о +9.6 +8.7 94 +7 +7 1018.7 1016.8
18 14.06 С 2-3
{3}
н/о н/о +9.6 +8.7 94 +8 +8 1018.7 1016.9 +9.4 +9.9
19 14.06 СВ 3 н/о н/о +9.5 +8.6 94 +7 +7 1018.5 1016.6
20 14.06 ЮВ 4 н/о н/о +9.5 +8.8 95 +6 +6 1018.7 1016.9
21 14.06 ЮВ 4-5
{5}
н/о н/о +9.6 +9.2 97 +7 +7 1018.9 1017.1
22 14.06 ЮВ 3-4
{4}
н/о н/о +9.5 +9.3 99 +7 +7 1018.8 1017.0
23 14.06 ЮВ 3 н/о н/о +9.3 +9.2 99 +7 +7 1018.2 1016.4
00 15.06 ЮВ 4-4
{5}
н/о н/о +9.2 +9.1 99 +6 +6 1018.3 1016.5
01 15.06 Ю 5 н/о н/о +10.0 +9.9 99 +7 +7 1018.1 1016.2
02 15.06 ЮЗ 4-5
{6}
н/о н/о +10.6 +10.4 99 +8 +8 1017.8 1015.9
03 15.06 З 8-9
{9}
н/о н/о +11.7 +10.0 89 +8 +8 1017.3 1015.5
04 15.06 З 7 н/о н/о +12.3 +10.0 86 +9 +9 1017.5 1015.6
05 15.06 З 7 н/о н/о +13.0 +10.2 83 +10 +10 1017.5 1015.7
06 15.06 З 6-7
{8}
н/о н/о +12.8 +10.2 84 +10 +10 1017.4 1015.6 +9.0 +13.3
07 15.06 З 7 н/о н/о +15.0 +11.2 78 +13 +13 1017.3 1015.5
08 15.06 З 8 н/о н/о +14.6 +11.0 79 +12 +12 1017.6 1015.8
09 15.06 ЮЗ 5-6
{8}
н/о н/о +16.6 +11.8 73 +16 +16 1017.6 1015.8
10 15.06 ЮЗ 3-3
{4}
н/о н/о +16.3 +10.3 68 +16 +16 1017.5 1015.7
11 15.06 СВ 1 н/о н/о +18.6 +10.3 58 +20 +20 1017.7 1015.9
12 15.06 СВ 4-4
{5}
н/о н/о +13.6 +11.2 85 +12 +12 1017.8 1016.0
13 15.06 СВ 7 н/о н/о +12.3 +10.4 88 +9 +9 1017.5 1015.7
14 15.06 В 5-6
{6}
н/о н/о +12.1 +10.4 89 +10 +10 1017.4 1015.6
15 15.06 СВ 6-6
{6}
н/о н/о +14.2 +10.3 77 +12 +12 1017.4 1015.6
16 15.06 СВ 5 н/о н/о +15.7 +9.7 67 +15 +15 1016.9 1015.1
17 15.06 СВ 5 н/о н/о +13.7 +10.2 79 +12 +12 1017.0 1015.2
18 15.06 СВ 6-6
{6}
н/о н/о +11.8 +10.7 93 +9 +9 1016.9 1015.0 +11.8 +19.9
19 15.06 В 4 н/о н/о +12.4 +10.8 90 +10 +10 1016.5 1014.7
20 15.06 В 4 н/о н/о +12.4 +10.7 89 +10 +10 1016.2 1014.4
21 15.06 СВ 7-8
{8}
н/о н/о +10.2 +9.8 97 +6 +6 1016.1 1014.3
22 15.06 СВ 7 н/о н/о +10.0 +9.8 99 +6 +6 1015.8 1014.0
23 15.06 СВ 6-7
{7}
н/о н/о +10.4 +9.8 96 +7 +7 1016.0 1014.1
00 16.06 В 5-6
{7}
н/о н/о +10.3 +9.8 97 +7 +7 1016.1 1014.2
01 16.06 В 6 н/о н/о +10.4 +9.9 97 +7 +7 1015.7 1013.8
02 16.06 В 4 н/о н/о +10.0 +9.7 98 +7 +7 1015.8 1013.9
03 16.06 СВ 6-6
{6}
н/о н/о +9.9 +9.6 98 +6 +6 1015.4 1013.5
04 16.06 В 4-5
{6}
н/о н/о +10.3 +9.8 97 +8 +8 1015.7 1013.8
05 16.06 СВ 4-4
{5}
н/о н/о +9.9 +9.5 97 +7 +7 1015.7 1013.8
06 16.06 В 4-4
{5}
н/о н/о +10.3 +9.6 95 +8 +8 1015.5 1013.7 +9.8 +14.1
07 16.06 СВ 3-4
{4}
н/о н/о +10.3 +9.5 95 +8 +8 1015.7 1013.8
08 16.06 В 3 н/о н/о +10.7 +9.6 93 +9 +9 1015.7 1013.8
09 16.06 В 1-2
{3}
н/о н/о +11.2 +9.8 91 +11 +11 1015.8 1013.9
10 16.06 СВ 3 н/о н/о +11.3 +10.2 93 +9 +9 1015.5 1013.7
11 16.06 СВ 4 н/о н/о +11.8 +10.4 91 +10 +10 1015.2 1013.4
12 16.06 В 3-4
{5}
н/о н/о +14.6 +10.8 78 +14 +14 1015.2 1013.4
13 16.06 В 4 н/о н/о +13.8 +10.6 81 +12 +12 1015.1 1013.3
14 16.06 В 5-5
{5}
н/о н/о +14.0 +10.6 80 +12 +12 1014.6 1012.7
15 16.06 В 4-5
{5}
н/о н/о +15.1 +11.8 81 +14 +14 1014.2 1012.4
16 16.06 ЮВ 5-5
{5}
н/о н/о +16.7 +12.2 75 +16 +16 1013.9 1012.1
18 16.06 Ю 8-9
{9}
н/о н/о +15.6 +11.6 77 +14 +14 1013.2 1011.4 +10.2 +17.4
20 16.06 Ю 8 н/о н/о +17.2 +11.0 67 +16 +16 1013.0 1011.3
23 16.06 ЮЗ 9 н/о н/о +16.3 +10.7 69 +15 +15 1013.1 1011.3
00 17.06 ЮЗ 9-9
{9}
н/о н/о +16.0 +10.7 71 +14 +14 1013.0 1011.2
01 17.06 З 9 н/о н/о +15.4 +11.0 75 +13 +13 1012.8 1011.0
02 17.06 З 9-9
{9}
н/о н/о +15.2 +11.4 78 +13 +13 1012.9 1011.1
03 17.06 З 8-9
{10}
н/о н/о +14.5 +12.6 88 +12 +12 1013.0 1011.2
04 17.06 З 8 н/о н/о +14.7 +13.0 90 +12 +12 1013.0 1011.2
05 17.06 З 7-9
{9}
н/о н/о +14.8 +13.0 89 +13 +13 1013.0 1011.2
06 17.06 ЮЗ 8-8
{9}
н/о н/о +14.5 +12.0 85 +12 +12 1013.2 1011.3 +13.7 +17.6
07 17.06 ЮЗ 6 н/о н/о +14.9 +11.4 80 +13 +13 1013.3 1011.5
08 17.06 ЮЗ 7 н/о н/о +15.3 +10.8 75 +14 +14 1013.2 1011.4
09 17.06 ЮЗ 8-10
{10}
н/о н/о +15.5 +9.4 67 +14 +14 1013.1 1011.3
10 17.06 ЮЗ 7 н/о н/о +15.6 +9.2 66 +14 +14 1013.1 1011.3
11 17.06 ЮЗ 6 н/о н/о +16.8 +8.7 59 +16 +16 1013.1 1011.3
12 17.06 ЮЗ 6-7
{7}
н/о н/о +16.8 +8.7 59 +16 +16 1012.8 1011.0
13 17.06 ЮЗ 9 н/о н/о +17.6 +8.8 56 +16 +16 1012.7 1010.9
14 17.06 ЮЗ 8-9
{10}
н/о н/о +17.4 +8.9 57 +16 +16 1012.6 1010.8
15 17.06 ЮЗ 7-8
{9}
н/о н/о +18.2 +8.2 52 +18 +18 1012.3 1010.5
16 17.06 З 8 н/о н/о +17.9 +9.2 57 +17 +17 1012.1 1010.3
17 17.06 З 10 н/о н/о +18.7 +9.3 54 +18 +18 1012.0 1010.2
18 17.06 З 8-8
{10}
н/о н/о +17.2 +10.3 64 +16 +16 1012.1 1010.3 +13.6 +19.7
19 17.06 ЮЗ 8-9
{10}
н/о н/о +17.8 +10.1 61 +17 +17 1012.2 1010.4
20 17.06 ЮЗ 10 н/о н/о +17.6 +9.6 59 +16 +16 1012.5 1010.7
21 17.06 ЮЗ 10-11
{11}
н/о н/о +16.5 +10.1 66 +15 +15 1013.0 1011.2
22 17.06 ЮЗ 10 н/о н/о +16.1 +10.2 68 +14 +14 1013.3 1011.5
23 17.06 З 10 н/о н/о +15.4 +10.3 72 +13 +13 1013.5 1011.7
00 18.06 З 10-10
{11}
н/о н/о +15.0 +10.5 74 +13 +13 1013.6 1011.8
01 18.06 З 9-10
{11}
н/о н/о +14.6 +10.7 77 +12 +12 1014.0 1012.2
02 18.06 З 9 н/о н/о +14.3 +10.9 80 +12 +12 1014.1 1012.3
03 18.06 З 9-10
{11}
н/о н/о +13.9 +11.0 83 +11 +11 1014.2 1012.4
04 18.06 З 10 н/о н/о +13.6 +11.0 84 +11 +11 1014.3 1012.5
05 18.06 З 8 н/о н/о +13.4 +10.7 84 +11 +11 1014.6 1012.8
06 18.06 З 5-6
{8}
н/о н/о +13.5 +10.8 84 +12 +12 1015.0 1013.2 +13.2 +18.7
07 18.06 ЮЗ 5-7
{7}
н/о н/о +13.7 +10.8 83 +12 +12 1015.1 1013.3
08 18.06 Ю 3-5
{7}
н/о н/о +14.1 +11.2 83 +13 +13 1015.2 1013.3
09 18.06 Ю 5-6
{6}
н/о н/о +15.2 +10.9 75 +14 +14 1015.2 1013.4
10 18.06 ЮЗ 6 н/о н/о +17.8 +10.7 63 +17 +17 1015.3 1013.5
11 18.06 ЮЗ 5-6
{7}
н/о н/о +18.0 +10.7 62 +18 +18 1015.3 1013.5
12 18.06 ЮЗ 5-7
{7}
н/о н/о +18.3 +10.7 61 +18 +18 1015.3 1013.5
13 18.06 ЮЗ 7 н/о н/о +18.7 +11.0 61 +19 +19 1015.1 1013.3
14 18.06 ЮЗ 8 н/о н/о +19.1 +10.9 59 +19 +19 1015.0 1013.2
15 18.06 ЮЗ 9-10
{10}
н/о н/о +18.7 +11.4 63 +18 +18 1014.9 1013.1
16 18.06 ЮЗ 7-7
{10}
н/о н/о +18.3 +11.2 63 +18 +18 1014.6 1012.8
17 18.06 ЮЗ 8-9
{11}
н/о н/о +16.4 +11.6 73 +15 +15 1014.3 1012.5
18 18.06 ЮЗ 9-9
{10}
н/о н/о +16.1 +11.7 75 +14 +14 1014.2 1012.4 +13.4 +20.1
19 18.06 ЮЗ 10 н/о н/о +16.8 +11.7 72 +15 +15 1014.3 1012.5
20 18.06 ЮЗ 7 н/о н/о +17.0 +11.9 72 +16 +16 1013.9 1012.1
21 18.06 Ю 7-8
{8}
н/о н/о +14.6 +12.1 85 +13 +13 1013.6 1011.8
22 18.06 Ю 9-9
{10}
н/о н/о +15.2 +12.0 81 +13 +13 1012.9 1011.0

 

Местоположение метеостанции Хаммарланд (Финляндия): широта 60.30 долгота 19.13 высота над уровнем моря 3 м.

В архиве по умолчанию представлена погода на Хаммарланде за последнюю неделю. Архивные данные за месяц целиком и за предыдущие месяцы, начиная с января 2011 года, Вы можете получить, выбрав интересующий диапазон дат из раскрывающегося списка и нажав кнопку "Ввод!".


*Определитесь, кто Вы:
робот инопланетянин человек

Внимание! Время в таблицах - всемирное. Для получения местного времени необходимо прибавить поправку, которая равна 1 ч.

Смотрите также архив погоды в соседних городах и на ближайших метеорологических станциях:

Погода в Йомала аэропорту (Финляндия) (47 км)
Погода в Орскаре (Швеция) (48 км)
Погода в Йомале (Финляндия) (49 км)
Погода в Лемланд Нихамн (Финляндия) (59 км)
Погода в Сванберге (Швеция) (59 км)
Погода в Содерарме (Швеция) (63 км)
Погода в Логнес Харбор (Финляндия) (68 км)
Погода в Фильме (Швеция) (68 км)
Погода в Кумлинге (Финляндия) (89 км)
Погода в Уппсале (Швеция) (96 км)

Пояснения к столбцам:

Ветер - указаны скорость ветра в м/с - средняя за 10 мин, порывы в срок и между сроками (в фигурных скобках) и направление, откуда дует ветер: С - северный, СВ - северо-восточный, В - восточный, ЮВ - юго-восточный, Ю - южный, ЮЗ - юго-западный, З - западный, СЗ - северо-западный.
Видимость - горизонтальная дальность видимости в метрах или километрах. При видимости от 1 до 10 км при отсутствии осадков обычно наблюдается дымка, при ухудшении видимости до 1 км и менее - туман. В сухую погоду видимость может ухудшаться дымом, пылью или мглою.
Явления - указаны атмосферные явления, наблюдавшиеся в срок или в последний час перед сроком; фигурными скобками обозначены явления, наблюдавшиеся между сроками (за 1-3 часа до срока); квадратными скобками обозначены град или гололедные отложения с указанием их диаметра в мм.
Облачность - указаны через наклонную черту общая и нижняя облачность в баллах и высота нижней границы облаков в метрах; квадратными скобками обозначены формы облаков: Ci - перистые, Cs - перисто-слоистые, Cc - перисто-кучевые, Ac - высококучевые, As - высокослоистые, Sc - слоисто-кучевые, Ns - слоисто-дождевые, Cu - кучевые, Cb - кучево-дождевые. Подробнее классификацию облаков см. в Атласе облаков (PDF).
T - Температура воздуха - температура, измеренная на высоте 2 м над землей.
Td - Температура точки росы - температура, при понижении до которой содержащийся в воздухе водяной пар достигнет насыщения.
f - Относительная влажность воздуха - влажноcть воздуха, измеренная на высоте 2 м над землей.
Te - Эффективная температура - температура, которую ощущает одетый по сезону человек в тени. Характеристика душности погоды. При расчете учитывается влияние влажности воздуха и скорости ветра на теплоощущения человека.
Tes - Эффективная температура на солнце - температура, которую ощущает человек, с поправкой на солнечный нагрев. Характеристика знойности погоды. Зависит от высоты солнца над горизонтом, облачности и скорости ветра. Ночью, в пасмурную погоду, а также при ветре 12 м/с и более поправка равна нулю.
P - Атмосферное давление - приведенное к уровню моря атмосферное давление.
Po - Атмосферное давление - измеренное на уровне метеостанции атмосферное давление.
Tmin - Минимальная температура - минимум температуры воздуха на высоте 2 м над землей.
Tmax - Максимальная температура - максимум температуры воздуха на высоте 2 м над землей.
R - Количество осадков - Количество выпавших осадков за период времени, мм. При наведении курсора мыши на число - период времени, за который выпало указанное количество осадков.
R24 - Количество осадков - Количество выпавших осадков за 24 часа, мм.
S - Снежный покров - Высота снежного покрова, см. При наведении курсора мыши на число - состояние снежного покрова и степень покрытия местности в баллах.